Current weather by "City, St" or "zip code"  
 
Advertise Here

Current Conditions: Cushing, Cushing Municipal Airport, OK

Overcast


50.0 F

Last Updated on Feb 28 2021, 5:55 am CST
Humidity: 86%
Wind Speed: NW 12.7 G 18.4 mph
Barometer 29.81 in
Dewpoint: 45.9 F
Visibility: 10.00 mi
Precip: --
Heat Index: NA
Wind Chill: 45 F
Current conditions at:

Cushing, Cushing Municipal Airport, OK (KCUH)

Lat: 35.94972 Lon: 96.77278

Local Radar Image active severe weather and emergency alerts image image weather storm and storm spotter reports image weather observation monitoring service image
Local
Radar
Active
Alerts
Storm Reports Obs
Monitoring

Sign-up For Email & Text Message Weather Alert Notification Services


Advertise Here

Observation History for Cushing, Cushing Municipal Airport, OK


Time Wind
(mph)
Vis
(mi)
Weather Precip (in) Temperature (F) Relative
Humidity
Wind
Chill
(F)
Heat
Index
(F)
Pressure
Air Dwpt altimeter
(in)
sea level
(mb)
Rmks
5:55 am CST NW 12.7 G 18.4 10.00 Overcast -- 50.0 45.9 86% 45 NA 29.81 M
4:55 am CST N 11.5 G 17.3 10.00 Overcast -- 53.0 53.1 100% 49 NA 29.77 M
3:55 am CST S 4.6 5.00 Fog/Mist -- 58.0 58.5 100% 58 NA 29.74 M
2:55 am CST NW 12.7 7.00 Overcast -- 59.0 59.0 100% 57 NA 29.75 M
1:55 am CST S 6.9 7.00 Overcast -- 58.0 58.1 100% 57 NA 29.73 M
12:55 am CST S 9.2 G 16.1 5.00 Fog/Mist -- 57.0 57.4 100% 55 NA 29.73 M
11:55 pm CST S 11.5 G 16.1 3.00 Fog/Mist -- 57.0 57.2 100% 54 NA 29.74 M
10:55 pm CST S 8.1 3.00 Fog/Mist -- 56.0 56.3 100% 54 NA 29.75 M
9:55 pm CST S 10.4 G 16.1 3.00 Fog/Mist -- 55.0 55.4 100% 52 NA 29.76 M
8:55 pm CST S 8.1 3.00 Light Drizzle -- 55.0 55.4 100% 53 NA 29.76 M
7:55 pm CST S 8.1 4.00 Fog/Mist -- 55.0 55.0 100% 53 NA 29.76 M
6:55 pm CST SE 8.1 10.00 Overcast -- 56.0 53.8 93% 54 NA 29.76 M
5:55 pm CST S 12.7 10.00 Overcast -- 58.0 51.8 81% 55 NA 29.75 M
4:55 pm CST S 9.2 10.00 Overcast -- 58.0 48.0 70% 56 NA 29.76 M
3:55 pm CST SE 9.2 G 16.1 10.00 Overcast -- 57.0 47.3 70% 55 NA 29.78 M
2:55 pm CST SE 9.2 10.00 Overcast -- 59.0 43.2 56% 57 NA 29.78 M
1:55 pm CST SE 8.1 G 18.4 10.00 Overcast -- 60.0 41.9 51% 59 NA 29.80 M
12:55 pm CST SE 9.2 G 16.1 10.00 Overcast -- 59.0 43.3 56% 57 NA 29.83 M
11:55 am CST S 10.4 G 17.3 10.00 Partly Cloudy -- 56.0 44.8 66% 53 NA 29.88 M
10:55 am CST SE 12.7 G 16.1 10.00 Partly Cloudy -- 50.0 50.2 100% 45 NA 29.90 M
9:55 am CST S 8.1 5.00 Fog/Mist -- 47.0 47.3 100% 43 NA 29.93 M
8:55 am CST S 8.1 0.50 Fog -- 44.0 44.2 100% 39 NA 29.93 M
7:55 am CST SE 6.9 0.15 Fog -- 43.0 43.2 100% 39 NA 29.93 M
7:35 am CST S 8.1 0.15 Fog -- 43.0 43.2 100% 38 NA 29.93 M

Regional Weather Observation


Cushing, Cushing Municipal Airport, OK (KCUH)

Overcast
50.0 F

Ponca City, Ponca City Municipal Airport, OK (KPNC)

Overcast
48.0 F

Chandler, Chandler Municipal Airport, OK (KCQB)

Overcast
49.0 F

Sand Springs, William R Pogue Municipal Airport, OK (KOWP)

NULL
62.0 F

Guthrie, Guthrie Municipal Airport, OK (KGOK)

Overcast
48.0 F

Blackwell-Tonkawa Municipal Airport, OK (KBKN)

Overcast
46.0 F
Advertise Here

Advertise Here